Starlink 31088

operational
NORAD ID: 58604 Int'l Des: 2023-200 Owner: SPXS Country: US Constellation: starlink
LEOCIRCULAR

关于 Starlink 31088

正在加载描述...

实时位置

正在加载3D地球...

即将过境

高度历史

Altitude vs Time

uPlot chart will show altitude changes over time

两行轨道根数

1 58604U 23200R 26095.17900286 .00007436 00000-0 27956-3 0 9997
2 58604 43.0068 19.1025 0001497 283.6128 76.4557 15.27569942127661
Epoch: Apr 5, 2026 • Age: 11 hours

当前状态

高度 495.2 km
速度 7.62 km/s
星下点 -42.46°S, 142.66°W
发射日期 Dec 19, 2023
运行时间 2.2 years
类型 internet

技术详情

分类 Payload
质量 730.00 kg
干质量 700.00 kg
总质量 730.00 kg
长度 0.30 m
直径 4.10 m
跨度 29.00 m
形状 Box + pan
制造商 SPXS
平台类型 Starlink V2M
阶段状态 In Orbit
所有者/国家 SPXS/US

大型星座

Loading constellations...